COSMOS 1275 DEB, 12758

Orbit data source: Space-Track

COSMOS 1275 DEB, 12758 is space debris in LEO originally from a launch on Thu, 04 Jun 1981 UTC launched from the Plesetsk Missile And Space Complex (PKMTR). Debris objects in space refer to the collection of defunct objects orbiting the Earth. Examples of debris include non-operational satellites, rocket bodies, and fragments generated from explosions, collisions, or faulty payload assembly.

Loading next visibility...
Identifier
12758, 1981-053DB
Orbit
LEO
Country
Flag of CISCIS
Related business
Manufacturer
Unknown
Mission
Spacecraft
Bus & Motor
Unknown
Mass
Unknown
Launch date (UTC)
1981-06-04 (45 years ago)
Launch vehicle
Unknown
Launch site
Plesetsk Missile And Space Complex (PKMTR)
Object type
Payload
Rocket body
Debris
Shape & HBR
Unknown shape, 0.1 m
Radar Cross Section
Small (<0.1 m²)

Expand to show TLE details & history
Last TLE update: 11 hours ago

TLE from 11 hours ago
0 COSMOS 1275 DEB
1 12758U 81053DB  26119.47084249  .00000622  00000-0  55631-3 0  9990
2 12758  82.8591 123.1093 0056105 341.3359 171.2166 13.82246885244935
Epoch: 2026-04-29T11:18Z
TLE epoch observation values (Epoch: 2026-04-29T11:18:00.791Z)
Latitude
27.15776°
Longitude
-87.49112°
Altitude
999.925 km
Speed
7.334 km/s
True Right ascension
19h 57m 46s
True Declination
27° 01' 23"
Sunlit
Object was in daylight at epoch
Visualization orbit readout
Latitude
Unknown
Longitude
Unknown
Altitude
Unknown
Speed
Unknown
Apparent Right ascension
Unknown
Apparent Declination
Unknown
Sunlit
N/A
Visualization observer readout
Local Sidereal Time
05:44:01
Azimuth
Unknown
Elevation
Unknown
Doppler factor
Unknown
Orbital elements
Apogee altitude
994.202 km
Perigee altitude
911.938 km
Semi-major axis
7,331.207 km
Eccentricity
0.00561
Inclination
82.8591°
RAAN
123.1093°
Arg. of periapsis
341.3359°
True anomaly
171.3141°
Mean anomaly
171.2166°
Eccentric anomaly
171.26542°
Mean motion
3.45764 °/min
Orbital period
104.12 mins
BSTAR
0.00055631
Loading maneuver chart data...
Computing Atmospheric mass density...
Loading historical data...
Loading historical data...
Loading historical data...
Loading historical data...
Loading historical data...
Loading historical data...
Loading historical data...

Documentation

Showing up to 5 results
|